Regional Weather Roundup
Issued by NWS Cleveland, OH

Home | Current Version | Previous Version | Graphics & Text | Print | Product List | Glossary On
Versions: 1 2 3 4 5 6 7 8 9 10 11 12 13 14 15 16 17 18 19 20 21 22 23 24 25 26 27 28 29 30 31 32 33 34 35 36 37 38 39 40 41 42 43 44 45 46 47 48 49 50
000
ASUS41 KCLE 210610
RWRCLE
OHIO REGIONAL WEATHER ROUNDUP
NATIONAL WEATHER SERVICE CLEVELAND, OH
100 AM EST SUN JAN 21 2018

NOTE: "FAIR" INDICATES FEW OR NO CLOUDS BELOW 12,000 FEET WITH NO
SIGNIFICANT WEATHER AND/OR OBSTRUCTIONS TO VISIBILITY.

OHZ001>008-015>018-024>027-034-035-043-044-210700-
   NORTHWEST OHIO

CITY           SKY/WX    TMP DP  RH WIND       PRES   REMARKS
DEFIANCE       CLOUDY    37  35  92 SW5       30.05F FOG
FINDLAY        CLOUDY    38  32  79 SW7       30.06S
TOLEDO EXPRESS CLOUDY    39  37  92 SW6       30.05S
TOLEDO EXEC    CLOUDY    37  34  89 SW7       30.06F
LIMA           CLOUDY    38  31  76 SW7       30.06S HAZE
$$

OHZ009>014-019>023-028>033-038-089-210700-
   NORTHEAST OHIO

CITY           SKY/WX    TMP DP  RH WIND       PRES   REMARKS
CLE-HOPKINS    CLOUDY    40  34  79 SW3       30.10S
CLE-LAKEFRONT  CLOUDY    41  34  76 SW10      30.07F
CUY CO. ARPT   NOT AVBL
LORAIN-ELYRIA  CLOUDY    37  30  75 SW5       30.08S
ASHTABULA      CLOUDY    37  31  78 S5        30.08S
AKRON-CANTON   CLOUDY    38  31  76 S7        30.08F
WOOSTER        CLOUDY    38  32  79 S6        30.08F
MANSFIELD      CLOUDY    41  35  79 SW13G21   30.07S
YOUNGSTOWN     CLOUDY    39  30  70 S5        30.08F
$$

OHZ042-051>053-060>062-070>072-077>081-210700-
  SOUTHWEST OHIO

CITY           SKY/WX    TMP DP  RH WIND       PRES   REMARKS
CINC-COVINGTON CLOUDY    45  44  97 S8        30.09S
CINC-LUNKEN    CLOUDY    40  39  97 CALM      30.11F
HAMILTON       LGT RAIN  41  41 100 CALM      30.11S FOG
DAYTON         DRZL/FOG  39  39 100 S3        30.10S VSB 1/2
WRIGHT-PAT AFB CLOUDY    39  39 100 CALM      30.09S FOG
DAYTON GENERAL LGT RAIN  42  41  96 S6        30.09R FOG
WILMINGTON     LGT RAIN  38  38 100 CALM      30.09F VSB 1/2
$$

OHZ036-037-039>041-045>050-054>059-063>069-073>076-082>088-210700-
  CENTRAL AND SOUTHEAST OHIO

CITY           SKY/WX    TMP DP  RH WIND       PRES   REMARKS
COLUMBUS       DRIZZLE   40  36  86 S5        30.11F FOG
OSU AIRPORT    LGT RAIN  39  38  96 S6        30.10F FOG
BOLTON FIELD   DRIZZLE   38  37  95 S3        30.11F
RICKENBACK AFB RAIN      38  37  99 CALM      30.11S
NEWARK         LGT RAIN  40  35  83 S3        30.11F
MARION         CLOUDY    39  34  82 SW8       30.08F
LANCASTER      LGT RAIN  37  36  96 CALM      30.12F FOG
ZANESVILLE     CLOUDY    42  34  73 S3        30.13S
NEW PHILLY     NOT AVBL
$$




USA.gov is the U.S. government's official web portal to all federal, state and local government web resources and services.